KG7TUZ Weather Reports


time (UTC)temp
C
wind
direction
speed
KPH
gust
KPH
rain 1hr
cm
rain 24hr
cm
rain mn
cm
humidity
%
barometer
mb
20260507181049 31 171 3.2 11.3 0.00 0.00 0.00 11 1011.4
20260507180521 30 157 3.2 11.3 0.00 0.00 0.00 11 1011.4
20260507180037 30 146 4.8 14.5 0.00 0.00 0.00 11 1011.7
20260507175600 31 186 6.4 14.5 0.00 0.00 0.00 11 1011.7
20260507175020 31 150 1.6 11.3 0.00 0.00 0.00 12 1011.7
20260507174552 31 170 3.2 11.3 0.00 0.00 0.00 11 1011.8
20260507174010 31 182 3.2 11.3 0.00 0.00 0.00 12 1011.8
20260507173532 31 146 1.6 11.3 0.00 0.00 0.00 11 1011.9
20260507173059 30 260 0.0 9.7 0.00 0.00 0.00 14 1012.0
20260507172515 31 167 1.6 9.7 0.00 0.00 0.00 12 1012.0
20260507172036 31 108 0.0 9.7 0.00 0.00 0.00 12 1012.0
20260507171604 31 228 3.2 11.3 0.00 0.00 0.00 13 1012.0
20260507171017 30 221 3.2 11.3 0.00 0.00 0.00 13 1012.1
20260507170541 30 196 1.6 9.7 0.00 0.00 0.00 13 1012.1
20260507170008 30 276 0.0 9.7 0.00 0.00 0.00 13 1012.2
20260507165528 30 277 3.2 9.7 0.00 0.00 0.00 13 1012.1
20260507165050 29 281 1.6 11.3 0.00 0.00 0.00 14 1012.2
20260507164520 29 338 3.2 11.3 0.00 0.00 0.00 12 1012.2
20260507164042 29 340 4.8 11.3 0.00 0.00 0.00 11 1012.2
20260507163501 29 88 0.0 6.4 0.00 0.00 0.00 14 1012.3
20260507163024 29 98 0.0 6.4 0.00 0.00 0.00 14 1012.3
20260507162546 28 228 1.6 4.8 0.00 0.00 0.00 12 1012.4
20260507162004 28 227 0.0 6.4 0.00 0.00 0.00 12 1012.4
20260507161530 28 225 1.6 6.4 0.00 0.00 0.00 13 1012.4
20260507161047 28 224 0.0 3.2 0.00 0.00 0.00 13 1012.5
20260507160521 27 225 0.0 3.2 0.00 0.00 0.00 15 1012.5
20260507160040 27 222 0.0 3.2 0.00 0.00 0.00 14 1012.5
20260507155558 27 223 0.0 3.2 0.00 0.00 0.00 15 1012.5
20260507155019 26 223 0.0 3.2 0.00 0.00 0.00 16 1012.6
20260507154544 26 223 0.0 3.2 0.00 0.00 0.00 15 1012.6
20260507154102 26 223 0.0 4.8 0.00 0.00 0.00 16 1012.6
20260507153522 26 207 0.0 4.8 0.00 0.00 0.00 14 1012.8
20260507153101 25 196 1.6 6.4 0.00 0.00 0.00 16 1012.7
20260507152513 25 181 0.0 6.4 0.00 0.00 0.00 17 1012.7
20260507152035 25 142 0.0 3.2 0.00 0.00 0.00 17 1012.7
20260507151600 25 141 0.0 3.2 0.00 0.00 0.00 16 1012.8
20260507151016 25 141 0.0 3.2 0.00 0.00 0.00 17 1012.8
20260507150537 24 141 0.0 4.8 0.00 0.00 0.00 20 1012.8
20260507150007 24 141 0.0 4.8 0.00 0.00 0.00 20 1012.8
20260507145528 23 132 0.0 1.6 0.00 0.00 0.00 20 1012.9
20260507145049 23 132 0.0 1.6 0.00 0.00 0.00 20 1013.0
20260507144526 23 126 0.0 1.6 0.00 0.00 0.00 23 1012.9
20260507144040 23 126 0.0 1.6 0.00 0.00 0.00 23 1013.0
20260507143601 22 126 0.0 1.6 0.00 0.00 0.00 22 1013.0
20260507143022 22 126 0.0 1.6 0.00 0.00 0.00 22 1012.9
20260507142544 22 126 0.0 1.6 0.00 0.00 0.00 25 1012.9
20260507142002 21 69 0.0 0.0 0.00 0.00 0.00 26 1012.8
20260507141524 21 69 0.0 0.0 0.00 0.00 0.00 28 1012.8
20260507141047 21 69 0.0 1.6 0.00 0.00 0.00 29 1012.8
20260507140518 21 68 0.0 1.6 0.00 0.00 0.00 28 1012.8
20260507140038 21 38 0.0 0.0 0.00 0.00 0.00 26 1012.7
20260507135559 20 38 0.0 0.0 0.00 0.00 0.00 26 1012.8
20260507135021 20 19 0.0 0.0 0.00 0.00 0.00 29 1012.7
20260507134540 19 19 0.0 0.0 0.00 0.00 0.00 33 1012.6
20260507134009 18 19 0.0 0.0 0.00 0.00 0.00 34 1012.7
20260507133531 18 19 0.0 0.0 0.00 0.00 0.00 35 1012.7
20260507133053 18 19 0.0 0.0 0.00 0.00 0.00 37 1012.6
20260507132504 17 19 0.0 1.6 0.00 0.00 0.00 34 1012.5
20260507132024 17 23 0.0 1.6 0.00 0.00 0.00 32 1012.5
20260507131546 16 9 0.0 0.0 0.00 0.00 0.00 35 1012.4
20260507131017 15 346 0.0 1.6 0.00 0.00 0.00 39 1012.4
20260507130537 14 63 0.0 1.6 0.00 0.00 0.00 43 1012.4
20260507130006 14 65 0.0 0.0 0.00 0.00 0.00 46 1012.3
20260507125530 14 65 0.0 0.0 0.00 0.00 0.00 48 1012.3
20260507125049 14 67 0.0 0.0 0.00 0.00 0.00 46 1012.4
20260507124509 15 67 0.0 0.0 0.00 0.00 0.00 45 1012.4
20260507124031 15 67 0.0 0.0 0.00 0.00 0.00 44 1012.3
20260507123552 15 67 0.0 0.0 0.00 0.00 0.00 43 1012.3
20260507123012 15 67 0.0 0.0 0.00 0.00 0.00 45 1012.3
20260507122532 15 67 0.0 0.0 0.00 0.00 0.00 43 1012.3
20260507122053 16 67 0.0 0.0 0.00 0.00 0.00 43 1012.4
20260507121512 16 67 0.0 0.0 0.00 0.00 0.00 42 1012.4
20260507121047 16 67 0.0 0.0 0.00 0.00 0.00 39 1012.3
20260507120602 15 67 0.0 0.0 0.00 0.00 0.00 40 1012.4
20260507120035 15 67 0.0 0.0 0.00 0.00 0.00 40 1012.4
20260507115548 15 67 0.0 0.0 0.00 0.00 0.00 40 1012.4
20260507115005 15 67 0.0 0.0 0.00 0.00 0.00 46 1012.5
20260507114521 15 67 0.0 0.0 0.00 0.00 0.00 45 1012.5
20260507114036 15 67 0.0 0.0 0.00 0.00 0.00 43 1012.5
20260507113547 15 67 0.0 0.0 0.00 0.00 0.00 42 1012.6
20260507113002 15 67 0.0 0.0 0.00 0.00 0.00 41 1012.7
20260507112531 16 67 0.0 0.0 0.00 0.00 0.00 43 1012.7
20260507112052 15 67 0.0 0.0 0.00 0.00 0.00 41 1012.8
20260507111518 15 68 0.0 0.0 0.00 0.00 0.00 40 1012.8
20260507111035 15 68 0.0 0.0 0.00 0.00 0.00 42 1012.8
20260507110555 16 68 0.0 0.0 0.00 0.00 0.00 41 1012.7
20260507110025 16 69 0.0 0.0 0.00 0.00 0.00 42 1012.8
20260507105540 15 69 0.0 0.0 0.00 0.00 0.00 41 1012.8
20260507105006 15 69 0.0 0.0 0.00 0.00 0.00 44 1012.9
20260507104527 15 69 0.0 0.0 0.00 0.00 0.00 43 1012.9
20260507104046 16 69 0.0 0.0 0.00 0.00 0.00 43 1012.9
20260507103503 16 69 0.0 0.0 0.00 0.00 0.00 44 1012.9
20260507103032 16 69 0.0 0.0 0.00 0.00 0.00 42 1013.0
20260507102549 16 69 0.0 0.0 0.00 0.00 0.00 40 1013.0
20260507102007 16 69 0.0 0.0 0.00 0.00 0.00 43 1013.1
20260507101540 16 69 0.0 0.0 0.00 0.00 0.00 42 1013.2
20260507101053 16 69 0.0 0.0 0.00 0.00 0.00 40 1013.2
20260507100520 16 69 0.0 0.0 0.00 0.00 0.00 39 1013.3
20260507100050 16 69 0.0 0.0 0.00 0.00 0.00 39 1013.2
20260507095506 16 69 0.0 0.0 0.00 0.00 0.00 39 1013.2
20260507095025 16 69 0.0 1.6 0.00 0.00 0.00 39 1013.2
20260507094544 16 69 0.0 1.6 0.00 0.00 0.00 40 1013.2
20260507094102 16 76 0.0 1.6 0.00 0.00 0.00 40 1013.2
20260507093520 16 115 0.0 1.6 0.00 0.00 0.00 40 1013.2
20260507093047 16 130 0.0 0.0 0.00 0.00 0.00 39 1013.3
20260507092504 16 133 0.0 0.0 0.00 0.00 0.00 39 1013.3
20260507092033 16 133 0.0 0.0 0.00 0.00 0.00 40 1013.3
20260507091553 15 134 0.0 0.0 0.00 0.00 0.00 40 1013.3
20260507091006 16 134 0.0 0.0 0.00 0.00 0.00 42 1013.4
20260507090525 16 134 0.0 0.0 0.00 0.00 0.00 41 1013.4
20260507090048 16 134 0.0 0.0 0.00 0.00 0.00 44 1013.5
20260507085509 16 134 0.0 0.0 0.00 0.00 0.00 44 1013.6
20260507085029 16 134 0.0 0.0 0.00 0.00 0.00 43 1013.6
20260507084600 16 134 0.0 0.0 0.00 0.00 0.00 40 1013.6
20260507084013 16 134 0.0 0.0 0.00 0.00 0.00 43 1013.5
20260507083542 16 134 0.0 0.0 0.00 0.00 0.00 42 1013.5
20260507083012 16 134 0.0 0.0 0.00 0.00 0.00 44 1013.5
20260507082526 16 134 0.0 0.0 0.00 0.00 0.00 40 1013.6
20260507082049 16 134 0.0 0.0 0.00 0.00 0.00 40 1013.6
20260507081503 16 134 0.0 0.0 0.00 0.00 0.00 43 1013.7
20260507081033 16 134 0.0 0.0 0.00 0.00 0.00 42 1013.7
20260507080550 16 134 0.0 0.0 0.00 0.00 0.00 40 1013.7
20260507080018 16 134 0.0 0.0 0.00 0.00 0.00 41 1013.7
20260507075540 16 134 0.0 0.0 0.00 0.00 0.00 40 1013.9
20260507075055 16 134 0.0 0.0 0.00 0.00 0.00 41 1013.9
20260507074522 16 134 0.0 0.0 0.00 0.00 0.00 41 1013.8
20260507074041 16 134 0.0 0.0 0.00 0.00 0.00 41 1013.9
20260507073507 16 134 0.0 0.0 0.00 0.00 0.00 43 1014.0
20260507073030 16 233 0.0 0.0 0.00 0.00 0.00 42 1014.0
20260507072556 16 233 0.0 0.0 0.00 0.00 0.00 41 1013.9
20260507072013 16 233 0.0 0.0 0.00 0.00 0.00 41 1013.9
20260507071543 16 233 0.0 0.0 0.00 0.00 0.00 41 1013.9
20260507071009 16 233 0.0 0.0 0.00 0.00 0.00 41 1013.9
20260507070538 16 233 0.0 0.0 0.00 0.00 0.00 43 1014.0
20260507065513 16 234 0.0 0.0 0.00 0.00 0.00 40 1014.0
20260507065033 16 233 0.0 0.0 0.00 0.00 0.00 44 1014.1
20260507064550 16 233 0.0 0.0 0.00 0.00 0.00 43 1014.0
20260507064017 16 233 0.0 0.0 0.00 0.00 0.00 43 1014.0
20260507063535 17 233 0.0 0.0 0.00 0.00 0.00 44 1014.0
20260507063058 17 233 0.0 0.0 0.00 0.00 0.00 44 1014.1
20260507062512 17 233 0.0 0.0 0.00 0.00 0.00 42 1014.0
20260507062042 17 233 0.0 0.0 0.00 0.00 0.00 41 1014.0
20260507061508 17 233 0.0 0.0 0.00 0.00 0.00 43 1014.0
20260507061037 17 233 0.0 0.0 0.00 0.00 0.00 42 1014.0
20260507060557 17 233 0.0 0.0 0.00 0.00 0.00 41 1014.0
20260507060019 17 234 0.0 0.0 0.00 0.00 0.00 40 1013.9
20260507055543 17 234 0.0 0.0 0.00 0.00 0.00 40 1013.9
20260507055101 17 234 0.0 0.0 0.00 0.00 0.00 40 1014.0
20260507054534 17 234 0.0 0.0 0.00 0.00 0.00 40 1013.9
20260507054046 17 234 0.0 0.0 0.00 0.00 0.00 42 1014.0
20260507053503 17 234 0.0 0.0 0.00 0.00 0.00 39 1013.9
20260507053022 18 234 0.0 0.0 0.00 0.00 0.00 39 1013.8
20260507052542 18 234 0.0 0.0 0.00 0.00 0.00 41 1013.9
20260507052007 18 234 0.0 0.0 0.00 0.00 0.00 38 1013.9
20260507051527 18 234 0.0 0.0 0.00 0.00 0.00 39 1013.9
20260507051059 18 234 0.0 0.0 0.00 0.00 0.00 37 1013.9
20260507050511 18 234 0.0 0.0 0.00 0.00 0.00 37 1013.9
20260507050041 18 234 0.0 0.0 0.00 0.00 0.00 39 1013.8
20260507045606 18 234 0.0 0.0 0.00 0.00 0.00 38 1013.9
20260507045017 19 234 0.0 0.0 0.00 0.00 0.00 37 1013.9
20260507044539 19 234 0.0 0.0 0.00 0.00 0.00 40 1013.7
20260507044055 19 234 0.0 0.0 0.00 0.00 0.00 38 1013.6
20260507043520 20 234 0.0 0.0 0.00 0.00 0.00 38 1013.7
20260507043041 20 234 0.0 0.0 0.00 0.00 0.00 36 1013.6
20260507042504 20 234 0.0 0.0 0.00 0.00 0.00 37 1013.6
20260507042024 20 234 0.0 0.0 0.00 0.00 0.00 38 1013.5
20260507041546 20 234 0.0 0.0 0.00 0.00 0.00 35 1013.5
20260507041103 21 234 0.0 0.0 0.00 0.00 0.00 37 1013.4
20260507040529 21 234 0.0 0.0 0.00 0.00 0.00 33 1013.3
20260507040048 21 234 0.0 0.0 0.00 0.00 0.00 32 1013.2
20260507035505 21 234 0.0 0.0 0.00 0.00 0.00 33 1013.2
20260507035022 21 234 0.0 0.0 0.00 0.00 0.00 31 1013.2
20260507034544 21 234 0.0 0.0 0.00 0.00 0.00 31 1013.2
20260507034059 22 234 0.0 0.0 0.00 0.00 0.00 28 1013.0
20260507033518 22 234 0.0 0.0 0.00 0.00 0.00 28 1013.0
20260507033046 22 234 0.0 0.0 0.00 0.00 0.00 28 1012.9
20260507032503 22 234 0.0 0.0 0.00 0.00 0.00 27 1012.9
20260507032031 22 234 0.0 0.0 0.00 0.00 0.00 28 1012.8
20260507031550 22 234 0.0 0.0 0.00 0.00 0.00 27 1012.7
20260507031012 22 234 0.0 0.0 0.00 0.00 0.00 27 1012.6
20260507030526 23 234 0.0 0.0 0.00 0.00 0.00 27 1012.5
20260507030044 23 234 0.0 0.0 0.00 0.00 0.00 26 1012.4
20260507025510 23 234 0.0 0.0 0.00 0.00 0.00 27 1012.4
20260507025030 23 234 0.0 0.0 0.00 0.00 0.00 26 1012.3
20260507024623 23 234 0.0 0.0 0.00 0.00 0.00 26 1012.3
20260507024021 23 234 0.0 0.0 0.00 0.00 0.00 26 1012.2
20260507023546 24 234 0.0 0.0 0.00 0.00 0.00 25 1012.2
20260507023008 24 234 0.0 0.0 0.00 0.00 0.00 26 1012.1
20260507022527 24 234 0.0 1.6 0.00 0.00 0.00 24 1012.1
20260507022045 24 234 0.0 1.6 0.00 0.00 0.00 25 1012.0
20260507021501 25 225 0.0 1.6 0.00 0.00 0.00 24 1012.0
20260507021030 25 224 0.0 1.6 0.00 0.00 0.00 24 1012.0
20260507020549 25 229 0.0 1.6 0.00 0.00 0.00 24 1012.0
20260507020016 25 225 0.0 1.6 0.00 0.00 0.00 24 1011.9
20260507015533 25 209 0.0 3.2 0.00 0.00 0.00 25 1011.9
20260507015053 25 200 0.0 6.4 0.00 0.00 0.00 24 1011.9
20260507014516 25 240 0.0 12.9 0.00 0.00 0.00 24 1011.8
20260507014031 25 226 4.8 12.9 0.00 0.00 0.00 25 1011.8
20260507013550 26 217 1.6 8.0 0.00 0.00 0.00 23 1011.7
20260507013022 26 215 0.0 4.8 0.00 0.00 0.00 23 1011.7
20260507012537 26 199 0.0 11.3 0.00 0.00 0.00 23 1011.7
20260507012055 26 138 1.6 11.3 0.00 0.00 0.00 23 1011.8
20260507011524 26 193 3.2 11.3 0.00 0.00 0.00 24 1011.8
20260507011042 26 209 0.0 4.8 0.00 0.00 0.00 23 1011.7
20260507010510 26 195 0.0 8.0 0.00 0.00 0.00 23 1011.7
20260507010027 26 153 1.6 8.0 0.00 0.00 0.00 23 1011.7
20260507005557 26 230 0.0 9.7 0.00 0.00 0.00 24 1011.7
20260507005013 26 200 3.2 9.7 0.00 0.00 0.00 23 1011.5
20260507004544 26 280 3.2 9.7 0.00 0.00 0.00 23 1011.7
20260507004101 26 211 1.6 12.9 0.00 0.00 0.00 23 1011.6
20260507003527 26 212 3.2 8.0 0.00 0.00 0.00 23 1011.6
20260507003047 27 180 1.6 8.0 0.00 0.00 0.00 23 1011.5
20260507002504 27 199 1.6 11.3 0.00 0.00 0.00 22 1011.5
20260507002033 27 248 3.2 11.3 0.00 0.00 0.00 23 1011.5
20260507001554 27 274 1.6 8.0 0.00 0.00 0.00 21 1011.5
20260507001016 27 253 0.0 9.7 0.00 0.00 0.00 23 1011.5
20260507000535 27 250 0.0 6.4 0.00 0.00 0.00 23 1011.6
20260507000055 27 262 1.6 9.7 0.00 0.00 0.00 22 1011.6
20260506235553 27 180 1.6 9.7 0.00 0.00 0.00 22 1011.6
20260506235010 27 270 3.2 11.3 0.00 0.00 0.00 24 1011.6
20260506234535 27 173 1.6 8.0 0.00 0.00 0.00 23 1011.5
20260506234050 27 182 0.0 9.7 0.00 0.00 0.00 22 1011.6
20260506233505 27 196 1.6 9.7 0.00 0.00 0.00 22 1011.7
20260506233034 27 213 1.6 9.7 0.00 0.00 0.00 23 1011.7
20260506232553 27 156 1.6 9.7 0.00 0.00 0.00 23 1011.6
20260506232009 27 210 4.8 12.9 0.00 0.00 0.00 22 1011.8
20260506231534 27 190 3.2 9.7 0.00 0.00 0.00 22 1011.7
20260506231048 27 195 0.0 9.7 0.00 0.00 0.00 22 1011.9
20260506230558 27 194 0.0 9.7 0.00 0.00 0.00 23 1011.9
20260506230012 27 250 0.0 9.7 0.00 0.00 0.00 22 1012.0
20260506225542 27 265 0.0 9.7 0.00 0.00 0.00 23 1012.0
20260506225104 26 206 3.2 9.7 0.00 0.00 0.00 23 1012.1
20260506224528 26 209 1.6 17.7 0.00 0.00 0.00 22 1012.1
20260506224047 27 165 4.8 17.7 0.00 0.00 0.00 22 1012.2
20260506223504 27 157 1.6 8.0 0.00 0.00 0.00 22 1012.3
20260506223037 27 165 0.0 12.9 0.00 0.00 0.00 24 1012.4
20260506222543 27 209 1.6 17.7 0.00 0.00 0.00 23 1012.5
20260506222009 27 259 4.8 17.7 0.00 0.00 0.00 22 1012.4
20260506221529 27 240 3.2 11.3 0.00 0.00 0.00 23 1012.5
20260506221057 27 257 0.0 6.4 0.00 0.00 0.00 22 1012.6
20260506220518 27 180 1.6 11.3 0.00 0.00 0.00 22 1012.7
20260506220044 27 283 3.2 11.3 0.00 0.00 0.00 22 1012.8
20260506215603 27 199 3.2 12.9 0.00 0.00 0.00 23 1012.8
20260506215018 26 202 0.0 9.7 0.00 0.00 0.00 23 1012.8
20260506214537 26 190 3.2 11.3 0.00 0.00 0.00 22 1012.9
20260506214056 27 242 1.6 11.3 0.00 0.00 0.00 22 1013.0
20260506213525 26 306 3.2 12.9 0.00 0.00 0.00 22 1013.0
20260506213100 26 203 3.2 12.9 0.00 0.00 0.00 23 1013.1
20260506212507 26 184 3.2 8.0 0.00 0.00 0.00 22 1013.3
20260506212026 27 197 0.0 16.1 0.00 0.00 0.00 23 1013.3
20260506211602 26 267 4.8 16.1 0.00 0.00 0.00 24 1013.3
20260506211102 26 181 1.6 14.5 0.00 0.00 0.00 23 1013.4
20260506210517 27 269 3.2 14.5 0.00 0.00 0.00 22 1013.5
20260506210037 26 207 3.2 14.5 0.00 0.00 0.00 24 1013.5
20260506205554 26 227 0.0 8.0 0.00 0.00 0.00 25 1013.6
20260506205021 26 175 1.6 12.9 0.00 0.00 0.00 25 1013.7
20260506204547 26 169 3.2 14.5 0.00 0.00 0.00 25 1013.7
20260506204055 25 223 4.8 14.5 0.00 0.00 0.00 24 1013.7
20260506203521 26 195 1.6 9.7 0.00 0.00 0.00 25 1013.9
20260506203046 26 96 0.0 9.7 0.00 0.00 0.00 25 1013.9
20260506202506 26 134 1.6 14.5 0.00 0.00 0.00 24 1014.0
20260506202024 26 246 4.8 16.1 0.00 0.00 0.00 25 1014.0
20260506201555 25 234 3.2 11.3 0.00 0.00 0.00 25 1014.0
20260506201010 25 162 1.6 9.7 0.00 0.00 0.00 25 1014.1
20260506200538 25 231 1.6 8.0 0.00 0.00 0.00 26 1014.1
20260506195513 25 157 3.2 16.1 0.00 0.00 0.00 25 1014.3
20260506195042 25 236 3.2 16.1 0.00 0.00 0.00 26 1014.3
20260506194628 25 281 1.6 11.3 0.00 0.00 0.00 27 1014.5
20260506194028 25 170 0.0 9.7 0.00 0.00 0.00 25 1014.5
20260506193552 25 174 3.2 9.7 0.00 0.00 0.00 25 1014.5
20260506193015 24 218 1.6 8.0 0.00 0.00 0.00 27 1014.5
20260506192538 24 78 0.0 8.0 0.00 0.00 0.00 27 1014.5
20260506192055 25 180 3.2 8.0 0.00 0.00 0.00 25 1014.6
20260506191511 25 193 0.0 11.3 0.00 0.00 0.00 26 1014.7
20260506191040 25 310 1.6 14.5 0.00 0.00 0.00 26 1014.7
20260506190600 25 226 4.8 14.5 0.00 0.00 0.00 27 1014.8
20260506190018 24 205 1.6 8.0 0.00 0.00 0.00 27 1014.7
20260506185535 23 131 1.6 8.0 0.00 0.00 0.00 27 1014.8
20260506185057 23 274 1.6 12.9 0.00 0.00 0.00 30 1014.9
20260506184521 23 164 4.8 14.5 0.00 0.00 0.00 28 1015.0
20260506184040 23 192 1.6 14.5 0.00 0.00 0.00 29 1015.1
20260506183559 23 161 4.8 14.5 0.00 0.00 0.00 28 1015.1
20260506183026 23 138 4.8 12.9 0.00 0.00 0.00 28 1015.2
20260506182543 23 157 0.0 8.0 0.00 0.00 0.00 28 1015.2
20260506182104 23 158 0.0 11.3 0.00 0.00 0.00 28 1015.2
20260506181520 23 213 1.6 11.3 0.00 0.00 0.00 28 1015.3